TimePST,TemperatureF,Dew PointF,Humidity,Sea Level PressureIn,VisibilityMPH,Wind Direction,Wind SpeedMPH,Gust SpeedMPH,PrecipitationIn,Events,Conditions,WindDirDegrees,DateUTC
12:15 AM,12.2,10.4,92,30.59,0.8,Calm,Calm,-,N/A,,Mist,0,2013-01-16 08:15:00
12:35 AM,14.0,12.2,93,30.59,0.8,Calm,Calm,-,N/A,,Mist,0,2013-01-16 08:35:00
12:55 AM,8.6,6.8,92,30.59,0.5,Calm,Calm,-,N/A,Fog,Light Freezing Fog,0,2013-01-16 08:55:00
1:15 AM,10.4,8.6,92,30.60,1.2,Calm,Calm,-,N/A,,Clear,0,2013-01-16 09:15:00
1:35 AM,8.6,5.0,85,30.60,0.2,SSE,3.5,-,N/A,Fog,Light Freezing Fog,160,2013-01-16 09:35:00
1:55 AM,6.8,1.4,79,30.60,0.5,Calm,Calm,-,N/A,Fog,Light Freezing Fog,0,2013-01-16 09:55:00
2:15 AM,8.6,6.8,92,30.60,0.8,South,3.5,-,N/A,,Mist,180,2013-01-16 10:15:00
2:35 AM,10.4,6.8,85,30.60,10.0,Calm,Calm,-,N/A,,Clear,0,2013-01-16 10:35:00
2:55 AM,8.6,5.0,85,30.60,0.8,Calm,Calm,-,N/A,,Mist,0,2013-01-16 10:55:00
3:15 AM,8.6,6.8,92,30.60,0.2,Calm,Calm,-,N/A,Fog,Light Freezing Fog,0,2013-01-16 11:15:00
3:35 AM,6.8,5.0,92,30.60,0.2,Calm,Calm,-,N/A,Fog,Light Freezing Fog,0,2013-01-16 11:35:00
3:55 AM,6.8,3.2,85,30.60,0.2,Calm,Calm,-,N/A,Fog,Light Freezing Fog,0,2013-01-16 11:55:00
4:15 AM,6.8,3.2,85,30.60,0.2,Calm,Calm,-,N/A,Fog,Light Freezing Fog,0,2013-01-16 12:15:00
4:35 AM,6.8,5.0,92,30.59,3.0,Calm,Calm,-,N/A,,Partly Cloudy,0,2013-01-16 12:35:00
4:55 AM,5.0,1.4,85,30.59,0.5,Calm,Calm,-,N/A,Fog,Light Freezing Fog,0,2013-01-16 12:55:00
5:15 AM,5.0,1.4,85,30.58,1.0,Calm,Calm,-,N/A,,Clear,0,2013-01-16 13:15:00
5:35 AM,5.0,1.4,85,30.58,10.0,Calm,Calm,-,N/A,,Clear,0,2013-01-16 13:35:00
6:45 AM,3.2,-0.4,85,30.58,1.0,Calm,Calm,-,N/A,Fog,Shallow Fog,0,2013-01-16 14:45:00
7:45 AM,3.2,-0.4,85,30.60,0.5,Calm,Calm,-,N/A,Fog,Light Freezing Fog,0,2013-01-16 15:45:00
9:50 AM,12.2,8.6,85,30.60,10.0,Calm,Calm,-,N/A,,Clear,0,2013-01-16 17:50:00
10:45 AM,15.8,14.0,93,30.58,10.0,Calm,Calm,-,N/A,,Clear,0,2013-01-16 18:45:00
11:55 AM,23.0,19.4,86,30.53,10.0,Calm,Calm,-,N/A,,Clear,0,2013-01-16 19:55:00
12:55 PM,26.6,17.6,69,30.49,10.0,Calm,Calm,-,N/A,,Clear,0,2013-01-16 20:55:00
1:50 PM,28.4,15.8,59,30.49,10.0,Calm,Calm,-,N/A,,Clear,0,2013-01-16 21:50:00
3:55 PM,35.6,14.0,41,30.48,10.0,North,4.6,-,N/A,,Clear,350,2013-01-16 23:55:00
4:55 PM,32.0,15.8,51,30.49,10.0,WNW,3.5,-,N/A,,Clear,300,2013-01-17 00:55:00
5:15 PM,26.6,14.0,59,30.49,10.0,Calm,Calm,-,N/A,,Clear,0,2013-01-17 01:15:00
5:35 PM,24.8,14.0,64,30.49,10.0,South,3.5,-,N/A,,Clear,180,2013-01-17 01:35:00
5:55 PM,23.0,14.0,68,30.50,10.0,Calm,Calm,-,N/A,,Clear,0,2013-01-17 01:55:00
6:15 PM,21.2,14.0,74,30.51,10.0,Calm,Calm,-,N/A,Snow,Light Snow,0,2013-01-17 02:15:00
6:35 PM,19.4,14.0,80,30.51,10.0,Calm,Calm,-,N/A,Snow,Light Snow,0,2013-01-17 02:35:00
6:55 PM,21.2,14.0,74,30.51,10.0,Calm,Calm,-,N/A,,Clear,0,2013-01-17 02:55:00
7:15 PM,17.6,12.2,79,30.52,10.0,Calm,Calm,-,N/A,,Clear,0,2013-01-17 03:15:00
7:35 PM,19.4,14.0,80,30.52,10.0,Calm,Calm,-,N/A,,Clear,0,2013-01-17 03:35:00
7:55 PM,17.6,14.0,86,30.52,10.0,Calm,Calm,-,N/A,,Clear,0,2013-01-17 03:55:00
8:15 PM,14.0,10.4,86,30.52,10.0,Calm,Calm,-,N/A,,Clear,0,2013-01-17 04:15:00
8:35 PM,14.0,10.4,86,30.52,10.0,Calm,Calm,-,N/A,,Clear,0,2013-01-17 04:35:00
8:55 PM,12.2,10.4,92,30.52,10.0,Calm,Calm,-,N/A,,Clear,0,2013-01-17 04:55:00
9:15 PM,14.0,12.2,93,30.52,10.0,Calm,Calm,-,N/A,,Clear,0,2013-01-17 05:15:00
9:35 PM,12.2,8.6,85,30.52,5.0,Calm,Calm,-,N/A,,Clear,0,2013-01-17 05:35:00
9:55 PM,10.4,8.6,92,30.52,10.0,Calm,Calm,-,N/A,,Clear,0,2013-01-17 05:55:00
10:15 PM,12.2,8.6,85,30.52,10.0,Calm,Calm,-,N/A,,Clear,0,2013-01-17 06:15:00
10:35 PM,10.4,6.8,85,30.52,9.0,Calm,Calm,-,N/A,,Clear,0,2013-01-17 06:35:00
10:55 PM,6.8,5.0,92,30.51,0.2,Calm,Calm,-,N/A,Fog,Light Freezing Fog,0,2013-01-17 06:55:00
11:15 PM,10.4,6.8,85,30.51,0.8,Calm,Calm,-,N/A,,Mist,0,2013-01-17 07:15:00
11:35 PM,6.8,5.0,92,30.51,0.2,Calm,Calm,-,N/A,Fog,Light Freezing Fog,0,2013-01-17 07:35:00
11:55 PM,6.8,5.0,92,30.51,0.2,Calm,Calm,-,N/A,Fog,Light Freezing Fog,0,2013-01-17 07:55:00